Location: Unspecified
(52.4292°N, 19.3359°E)
Time: 23:08:18
(UTC+02:00)

SR - Pass Details

Date: 01 June 2024
Orbit: 580 x 858 km, 66.7° (Epoch: 12 June)

Event Time Altitude Azimuth Distance (km) Brightness Sun altitude
Rises 18:57:59 0° 275° (W) 3,074 ? 14.9°
Reaches altitude 10° 19:01:03 10° 294° (WNW) 2,102 ? 14.4°
Maximum altitude 19:04:20 18° 338° (NNW) 1,570 ? 14.0°
Drops below altitude 10° 19:07:29 10° 23° (NNE) 2,000 ? 13.5°
Sets 19:10:19 0° 42° (NE) 2,869 ? 13.1°
